Location: Nitra
(0.0000°N, 18.0833°E)
Time: 02:56:17
(UTC+02:00)

H-2A R/B - Visible Passes

Search period start: 11 May 2021 00:00
Search period end: 21 May 2021 00:00
Orbit: 733 x 837 km, 98.2° (Epoch: 10 May)

Date Brightness Start Highest point End Pass type
(mag) Time Alt. Az. Time Alt. Az. Time Alt. Az.
11 May 3.1 19:01:26 10° SE 19:05:12 22° ENE 19:08:56 10° NNE visible
11 May 4.3 20:40:51 10° SSW 20:44:22 20° WSW 20:47:51 10° WNW visible
12 May 2.8 20:08:43 10° S 20:13:28 48° WSW 20:18:10 10° NNW visible
13 May 1.9 19:37:39 10° SSE 19:42:33 67° ENE 19:47:24 10° N visible
14 May 2.9 19:07:31 10° SE 19:11:37 27° ENE 19:15:42 10° NNE visible
14 May 4.5 20:47:50 10° SW 20:50:46 16° WSW 20:53:43 10° WNW visible
15 May 3.2 20:15:19 10° S 20:19:53 39° WSW 20:24:25 10° NW visible
16 May 1.8 19:44:02 10° SSE 19:48:58 83° ENE 19:53:51 10° N visible
17 May 2.7 19:13:40 10° SE 19:18:03 33° ENE 19:22:24 10° NNE visible
17 May 4.7 20:55:02 10° SW 20:57:11 13° WSW 20:59:21 10° WNW visible
18 May 3.6 20:21:58 10° SSW 20:26:18 32° WSW 20:30:37 10° NW visible
19 May 2.0 19:50:28 10° S 19:55:23 81° WSW 20:00:17 10° NNW visible
20 May 2.4 19:19:53 10° SSE 19:24:27 40° ENE 19:29:02 10° N visible
20 May 4.9 21:03:09 10° WSW 21:03:36 10° WSW 21:04:02 10° W visible
